Tracking 27405 objects as of 1-Jun-2023
HD Live streaming from Space Station
objects crossing your sky now

COSMOS 304

Track COSMOS 304 now!
10-day predictions
COSMOS 304 is classified as:


NORAD ID: 4138
Int'l Code: 1969-091A
Perigee: 737.1 km
Apogee: 753.9 km
Inclination: 74.0 °
Period: 99.6 minutes
Semi major axis: 7116 km
RCS: 1.933 m2 (large)
Launch date: October 21, 1969
Source: Commonwealth of Independent States (former USSR) (CIS)
Launch site: PLESETSK MISSILE AND SPACE COMPLEX (PKMTR)
Your satellite tracking list
Your tracking list is empty




NASA's NSSDC Master Catalog

Two Line Element Set (TLE):
1 04138U 69091A   23152.44251204  .00000072  00000-0  27688-4 0  9990
2 04138  74.0372 146.3201 0011815  64.8838 295.3545 14.46127509827000
Source of the keplerian elements: AFSPC